Location: ??
(35.5052°N, 139.7262°E)
Time: 01:45:38
(UTC+00:00)

OAO 1 - Pass Details

Date: 28 October 2021
Orbit: 773 x 784 km, 35.0° (Epoch: 01 December)

Event Time Altitude Azimuth Distance (km) Brightness Sun altitude
Rises 11:00:13 0° 279° (W) 3,252 8.7 -39.1°
Reaches altitude 10° 11:02:46 10° 274° (W) 2,325 7.7 -39.6°
Enters shadow 11:04:24 19° 267° (W) 1,767 6.9 -39.9°
